Location: Maiden
(35.5760°N, 81.2120°W)
Time: 03:02:02
(UTC-04:00)

Cosmos 972 Rocket - Pass Details

Date: 02 August 2020
Orbit: 713 x 1151 km, 75.8° (Epoch: 11 August)

Event Time Altitude Azimuth Distance (km) Brightness Sun altitude
Rises 22:56:11 0° 341° (NNW) 3,227 8.3 -25.6°
Reaches altitude 10° 22:58:36 10° 338° (NNW) 2,258 7.3 -25.9°
Maximum altitude 23:03:33 63° 258° (WSW) 804 4.1 -26.5°
Enters shadow 23:03:46 62° 243° (WSW) 808 4.0 -26.6°
